Location: Hains Lake
(37.8540°N, 99.8578°W)
Time: 23:34:23
(UTC+00:00)

Vanguard 1 - Pass Details

Date: 29 November 2022
Orbit: 650 x 3831 km, 34.2° (Epoch: 05 February)

Event Time Altitude Azimuth Distance (km) Brightness Sun altitude
Exits shadow 11:30:18 24° 232° (SW) 2,600 11.8 -24.0°
Maximum altitude 11:33:17 29° 202° (SSW) 2,684 12.1 -23.4°
Drops below altitude 10° 11:43:47 10° 150° (SSE) 5,075 14.2 -21.4°
Sets 11:49:36 0° 141° (SE) 6,655 15.1 -20.3°
